Regional Weather Roundup
Issued by NWS Cleveland, OH

Home | Current Version | Previous Version | Text Only | Print | Product List | Glossary On
Versions: 1 2 3 4 5 6 7 8 9 10 11 12 13 14 15 16 17 18 19 20 21 22 23 24 25 26 27 28 29 30 31 32 33 34 35 36 37 38 39 40 41 42 43 44 45 46 47 48 49 50
000
ASUS41 KCLE 231312
RWRCLE
OHIO REGIONAL WEATHER ROUNDUP
NATIONAL WEATHER SERVICE WILMINGTON, OH
900 AM EDT WED MAY 23 2018

NOTE: "FAIR" INDICATES FEW OR NO CLOUDS BELOW 12,000 FEET WITH NO
SIGNIFICANT WEATHER AND/OR OBSTRUCTIONS TO VISIBILITY.

OHZ001>008-015>018-024>027-034-035-043-044-231400-
   NORTHWEST OHIO

CITY           SKY/WX    TMP DP  RH WIND       PRES   REMARKS
DEFIANCE       FAIR      63  58  83 NW3       30.18R
FINDLAY        FAIR      64  58  80 NW5       30.16R
TOLEDO EXPRESS FAIR      62  59  90 N7        30.17R
TOLEDO EXEC    FAIR      65  56  72 N6        30.17R
LIMA           FAIR      61  57  87 N8        30.17R
$$

OHZ009>014-019>023-028>033-038-089-231400-
   NORTHEAST OHIO

CITY           SKY/WX    TMP DP  RH WIND       PRES   REMARKS
CLE-HOPKINS    CLOUDY    55  52  89 N8        30.19R
CLE-LAKEFRONT  CLOUDY    54  52  93 NW6       30.16R
CUY CO. ARPT   CLOUDY    55  54  94 NW6       30.16R FOG
LORAIN-ELYRIA  CLOUDY    57  50  77 N9        30.17R
ASHTABULA      FOG       52  52 100 NW7       30.16R VSB 3/4
AKRON-CANTON   CLOUDY    57  51  80 N8        30.15R
WOOSTER        CLOUDY    57  53  86 N7        30.16R
MANSFIELD      PTSUNNY   58  55  90 NW10      30.16R
YOUNGSTOWN     DRIZZLE   54  53  97 NW8       30.13R FOG
$$

OHZ042-051>053-060>062-070>072-077>081-231400-
  SOUTHWEST OHIO

CITY           SKY/WX    TMP DP  RH WIND       PRES   REMARKS
CINC-COVINGTON FAIR      68  60  75 N7        30.13R
CINC-LUNKEN    FAIR      68  63  84 NE7       30.13R
HAMILTON       FAIR      68  62  81 N8        30.15R
DAYTON         FAIR      63  58  83 N9        30.17R
WRIGHT-PAT AFB MOSUNNY   64  57  77 NE10      30.15R
DAYTON GENERAL FAIR      67  57  70 N8        30.14R
WILMINGTON     FAIR      64  60  87 N12       30.14R
$$

OHZ036-037-039>041-045>050-054>059-063>069-073>076-082>088-231400-
  CENTRAL AND SOUTHEAST OHIO

CITY           SKY/WX    TMP DP  RH WIND       PRES   REMARKS
COLUMBUS       PTSUNNY   64  55  72 N8        30.13R
OSU AIRPORT    FAIR      62  55  77 N8        30.14R
BOLTON FIELD   PTSUNNY   64  57  77 N7        30.14R
RICKENBACK AFB FAIR      63  56  79 MISG      30.13R
NEWARK         CLOUDY    64  56  75 NE7       30.13R
MARION         FAIR      62  56  80 N10       30.17R
LANCASTER      FAIR      65  58  78 N10       30.13R
ZANESVILLE     PTSUNNY   63  56  78 N10G16    30.13R
NEW PHILLY     CLOUDY    59  53  80 NW12      30.14R
$$



USA.gov is the U.S. government's official web portal to all federal, state and local government web resources and services.